Flag for USA

Past Weather in Hobbs, New Mexico, USA — Yesterday and Last 2 Weeks

Now
73 °F

Clear.


Feels Like: 76 °F
Forecast: 91 / 68 °F
Wind: 10 mph from Northeast

Location: Hobbs / Lea County

Current Time: Jul 5, 2020 at 9:45:58 pm

Latest Report: Jul 5, 2020 at 9:15 pm


Visibility: 10 mi

Pressure: 30.01 "Hg (26.43 "Hg at 1101m altitude)

Humidity: 65%

Dew Point: 61 °F

Location of HobbsLocation

Past Weather in Hobbs — Graph

°F

Hobbs Temperature Yesterday

Maximum temperature yesterday: 97 °F (at 3:50 pm)
Minimum temperature yesterday: 73 °F (at 1:55 am)
Average temperature yesterday: 81 °F

High & Low Weather Summary for the Past Weeks

 TemperatureHumidityPressure
High102 °F (Jun 21, 1:50 pm)94% (Jun 24, 5:15 am)30.19 "Hg (Jun 24, 5:15 am)
Low61 °F (Jun 25, 5:50 am)4% (Jun 21, 2:50 pm)29.72 "Hg (Jun 28, 6:15 pm)
Average80 °F43%29.97 "Hg
* Reported Jun 20 8:35 pm — Jul 5 8:15 pm, Hobbs. Weather by CustomWeather, © 2020

Note: Actual official high and low records may vary slightly from our data, if they occured in-between our weather recording intervals... More about our weather records

Hobbs Weather History for the Previous 24 Hours

Scroll right to see more
 ConditionsComfort  
Time TempWeatherWind HumidityBarometerVisibility
8:15 pm
Sun, Jul 5
73 °FPassing clouds.7 mph78%30.00 "Hg10 mi
7:35 pm75 °FThundershowers. Broken clouds.12 mph69%30.00 "Hg7 mi
6:55 pm77 °FThundershowers. Sunny.14 mph57%29.92 "Hg10 mi
6:15 pm75 °FScattered clouds.25 mph61%29.91 "Hg10 mi
4:50 pm95 °FScattered clouds.8 mph23%29.92 "Hg10 mi
3:50 pm97 °FScattered clouds.6 mph22%29.94 "Hg10 mi
2:50 pm97 °FScattered clouds.6 mph22%29.96 "Hg10 mi
1:50 pm95 °FPassing clouds.6 mph25%29.99 "Hg10 mi
12:50 pm93 °FPassing clouds.7 mph26%30.02 "Hg10 mi
11:50 am90 °FSunny.3 mph29%30.04 "Hg10 mi
10:50 am90 °FSunny.7 mph31%30.05 "Hg10 mi
9:50 am86 °FSunny.12 mph35%30.04 "Hg10 mi
8:50 am79 °FScattered clouds.8 mph48%30.05 "Hg10 mi
7:50 am75 °FPassing clouds.7 mph57%30.05 "Hg10 mi
6:50 am73 °FPassing clouds.No wind65%30.05 "Hg10 mi
5:50 am72 °FPassing clouds.5 mph69%30.04 "Hg10 mi
5:35 am72 °FClear.7 mph69%30.05 "Hg10 mi
5:15 am72 °FClear.6 mph69%30.06 "Hg10 mi
4:55 am73 °FPassing clouds.7 mph65%30.06 "Hg10 mi
4:35 am73 °FPassing clouds.12 mph65%30.06 "Hg10 mi
4:15 am73 °FClear.14 mph65%30.05 "Hg10 mi
3:55 am75 °FClear.13 mph61%30.03 "Hg10 mi
3:35 am75 °FClear.15 mph61%30.04 "Hg10 mi
3:15 am77 °FPassing clouds.15 mph54%30.04 "Hg10 mi
2:55 am79 °FPassing clouds.9 mph37%30.03 "Hg10 mi
2:35 am81 °FPassing clouds.9 mph34%30.04 "Hg10 mi
2:15 am82 °FClear.7 mph30%30.04 "Hg10 mi
1:55 am81 °FPassing clouds.10 mph32%30.03 "Hg10 mi
1:35 am77 °FPassing clouds.9 mph36%30.03 "Hg10 mi
1:15 am77 °FPassing clouds.5 mph36%30.02 "Hg10 mi
12:55 am77 °FClear.5 mph34%30.02 "Hg10 mi
12:35 am77 °FClear.8 mph34%30.01 "Hg10 mi
12:15 am79 °FClear.5 mph32%30.01 "Hg10 mi
11:55 pm
Sat, Jul 4
79 °FClear.5 mph32%30.00 "Hg10 mi
11:35 pm79 °FClear.3 mph34%30.00 "Hg10 mi
11:15 pm79 °FClear.6 mph32%29.99 "Hg10 mi
10:55 pm79 °FClear.7 mph34%29.99 "Hg10 mi
10:35 pm81 °FClear.7 mph32%30.00 "Hg10 mi
10:15 pm82 °FClear.7 mph30%30.00 "Hg10 mi
Weather by CustomWeather, © 2020

See weather overview